Tracking 33165 objects as of 8-Feb-2026
HD Live streaming from Space Station
objects crossing your sky now

STARLINK-35787

Track STARLINK-35787 now!
10-day predictions
STARLINK-35787 is classified as:


NORAD ID: 66978
Int'l Code: 2025-288V
Perigee: 450.5 km
Apogee: 451.5 km
Inclination: 43.0 °
Period: 93.5 minutes
Semi major axis: 6821 km
RCS: Unknown
Launch date: December 8, 2025
Source: United States (US)
Launch site: AIR FORCE EASTERN TEST RANGE (AFETR)
Your satellite tracking list
Your tracking list is empty




NASA's NSSDC Master Catalog

Two Line Element Set (TLE):
1 66978U 25288V   26038.48029622  .00066672  00000-0  15859-2 0  9990
2 66978  42.9959 195.2396 0000757 240.9422 119.1359 15.40766428 10657
Source of the keplerian elements: AFSPC